Tracking 28052 objects as of 25-Sep-2023
HD Live streaming from Space Station
objects crossing your sky now

GALS 2

Track GALS 2 now!
GALS 2 is classified as:


NORAD ID: 23717
Int'l Code: 1995-063A
Perigee: 35,886.8 km
Apogee: 35,915.9 km
Inclination: 14.2 °
Period: 1,441.6 minutes
Semi major axis: 42272 km
RCS: 8.9125 m2 (large)
Launch date: November 17, 1995
Source: Commonwealth of Independent States (former USSR) (CIS)
Launch site: TYURATAM MISSILE AND SPACE COMPLEX (TTMTR)
Your satellite tracking list
Your tracking list is empty




NASA's NSSDC Master Catalog

Two Line Element Set (TLE):
1 23717U 95063A   23267.18134455 -.00000298  00000-0  00000-0 0  9994
2 23717  14.1681   9.9537 0003437 312.3317  56.8868  0.99889095101676
Source of the keplerian elements: AFSPC